Regional Weather Roundup
Issued by NWS

Home | Current Version | Previous Version | Graphics & Text | Print | Product List | Glossary On
Versions: 1 2 3 4 5 6 7 8 9 10 11 12 13 14 15 16 17 18 19 20 21 22 23 24 25 26 27 28 29 30 31 32 33 34 35 36 37 38 39 40 41 42 43 44 45 46 47 48 49 50
000
ASUS45 KPSR 021510
RWRAZ

ARIZONA HOURLY REGIONAL WEATHER ROUNDUP
NATIONAL WEATHER SERVICE PHOENIX AZ
800 AM MST WED SEP 02 2015

NOTE: FAIR INDICATES FEW OR NO CLOUDS BELOW 12,000 FEET WITH NO
SIGNIFICANT WEATHER AND/OR OBSTRUCTIONS TO VISIBILITY.

AZZ001>003-036-021600-
NORTHWEST ARIZONA

CITY           SKY/WX    TMP DP  RH WIND       PRES   REMARKS
BULLHEAD CITY  MOSUNNY   86  50  28 SW5       29.89S
KINGMAN        SUNNY     78  49  35 CALM      30.06R
$$

AZZ004>008-015-016-018-021600-
NORTH CENTRAL ARIZONA

CITY           SKY/WX    TMP DP  RH WIND       PRES   REMARKS
GRAND CANYON   MOSUNNY   63  54  72 CALM      30.31S
WILLIAMS       SUNNY     63  50  63 NE3       30.35S
PRESCOTT       MOSUNNY   73  52  47 SE9       30.20S
FLAGSTAFF      MOSUNNY   63  54  72 SW9       30.34S
PAYSON         PTSUNNY   70  55  60 CALM      30.24S
PAGE           SUNNY     76  50  40 CALM      30.13R
$$

AZZ009>014-017-021600-
NORTHEAST ARIZONA

CITY           SKY/WX    TMP DP  RH WIND       PRES   REMARKS
WINSLOW        PTSUNNY   67  59  75 CALM      30.21S
SAINT JOHNS    CLOUDY    67  54  63 CALM      30.28R
SHOW LOW       CLOUDY    64  52  63 S7        30.32S
$$

AZZ023-021600-
GREATER PHOENIX AREA

CITY           SKY/WX    TMP DP  RH WIND       PRES   REMARKS
PHOENIX        PTSUNNY   86  60  41 SE6       29.94R
BUCKEYE          N/A     86  46  25 CALM      29.94
GLENDALE       PTSUNNY   86  59  39 VRB3      29.96R
LUKE AFB       PTSUNNY   85  52  32 N6        29.94R
DEER VALLEY    PTSUNNY   86  61  42 SE5       29.96R
SCOTTSDALE     CLOUDY    85  65  51 CALM      29.98R
MESA-GATEWAY   PTSUNNY   81  66  61 SE7       29.99R
CHANDLER       PTSUNNY   82  64  54 SE5       29.96R
$$

AZZ027-028-021600-
SOUTHWEST MARICOPA COUNTY AND PINAL COUNTY

CITY           SKY/WX    TMP DP  RH WIND       PRES   REMARKS
CASA GRANDE    CLOUDY    82  54  36 CALM      29.97S
GILA BEND      FAIR      85  52  31 S7        29.91S
$$

AZZ503-504-507>509-021600-
SOUTHEAST ARIZONA

CITY           SKY/WX    TMP DP  RH WIND       PRES   REMARKS
TUCSON         CLOUDY    80  63  55 SE5       30.07S
DAVIS-MONTHAN  PTSUNNY   79  66  64 SE3       30.06R
RYAN FIELD     SUNNY     82  66  57 CALM      30.06R
NOGALES        PTSUNNY   75  63  66 S6        30.15S
SIERRA VISTA   MOSUNNY   75  57  53 N5        30.20F
DOUGLAS        MOSUNNY   74  60  61 CALM      30.16S
SAFFORD        CLOUDY    74  68  81 CALM      30.08R
$$

AZZ020-021-025-026-031-021600-
SOUTHWEST ARIZONA

CITY           SKY/WX    TMP DP  RH WIND       PRES   REMARKS
YUMA           PTSUNNY   85  65  51 SE9       29.86R
$$

CAZ031-033-041-043-047-048-061-021600-
SOUTHERN CALIFORNIA

CITY           SKY/WX    TMP DP  RH WIND       PRES   REMARKS
DOWNTOWN L.A.  CLOUDY    71  59  65 CALM      29.97R
L.A. AIRPORT   CLOUDY    70  60  70 SW3       29.98R
SAN DIEGO      PTSUNNY   70  58  65 SW5       29.98R
ONTARIO        CLOUDY    68  60  75 CALM      29.98S HAZE
RIVERSIDE      CLOUDY    69  60  73 SE5       29.99R
PALM SPRINGS   SUNNY     79  56  45 CALM      29.89R
EL CENTRO NAS  PTSUNNY   80  63  55 W3        29.86R
IMPERIAL       MOSUNNY   83  49  30 NW6       29.83R
BLYTHE         MOSUNNY   85  61  44 CALM      29.87R
NEEDLES        MOSUNNY   91  45  20 CALM      29.89R
$$

NVZ020-UTZ003-021600-
SOUTHERN NEVADA-UTAH

CITY           SKY/WX    TMP DP  RH WIND       PRES   REMARKS
LAS VEGAS      MOSUNNY   85  55  35 S5        29.90R
SALT LAKE CITY MOSUNNY   78  45  30 S21       30.02R
$$

NMZ009-TXZ055-021600-
NEW MEXICO-WEST TEXAS

CITY           SKY/WX    TMP DP  RH WIND       PRES   REMARKS
ALBUQUERQUE    PTSUNNY   72  49  44 E5        30.24R
EL PASO        MOSUNNY   80  49  33 E5        30.10S
$$


........................KEY........................
SKY/WX - SKY CONDITION/WEATHER
TMP    - TEMPERATURE IN FAHRENHEIT
DP     - DEW POINT IN FAHRENHEIT
RH     - RELATIVE HUMIDITY IN PERCENT
WIND   - DIRECTION AND SPEED IN MILES PER HOUR (MPH)
VRB    - VARIABLE WIND DIRECTION
PRES   - MEAN SEA LEVEL PRESSURE IN INCHES OF MERCURY
         F - FALLING PRESSURE   R - RISING PRESSURE
         S - STEADY PRESSURE
VSB    - VISIBILITY IN MILES
HX     - HEAT INDEX IN FAHRENHEIT
WCI    - WIND CHILL INDEX IN FAHRENHEIT
TC     - TEMPERATURE IN CELSIUS WHICH IS ALSO KNOWN AS
         TEMPERATURE IN CENTIGRADE
AFB    - AIR FORCE BASE
         LUKE AFB IS LUKE AIR FORCE BASE
         DAVIS-MONTHAN IS DAVIS-MONTHAN AIR FORCE BASE
NAS    - NAVAL AIR STATION
         EL CENTRO NAS IS EL CENTRO NAVAL AIR STATION
N/A    - NOT AVAILABLE



USA.gov is the U.S. government's official web portal to all federal, state and local government web resources and services.